Regional Weather Roundup
Issued by NWS

Home | Current Version | Previous Version | Text Only | Print | Product List | Glossary On
Versions: 1 2 3 4 5 6 7 8 9 10 11 12 13 14 15 16 17 18 19 20 21 22 23 24 25 26 27 28 29 30 31 32 33 34 35 36 37 38 39 40 41 42 43 44 45 46 47 48 49 50
000
ASUS43 KTOP 250459
RWRKS

WEATHER ROUNDUP FOR KANSAS
NATIONAL WEATHER SERVICE GOODLAND KS
1200 AM CDT SUN SEP 25 2016

NOTE:  "FAIR" INDICATES FEW OR NO CLOUDS BELOW 12,000 FEET WITH NO
SIGNIFICANT WEATHER AND/OR OBSTRUCTIONS TO VISIBILITY.

KSZ001>006-013>018-027>032-041>047-250600-
NORTHWEST KANSAS

CITY           SKY/WX    TMP DP  RH WIND       PRES   REMARKS
GOODLAND       CLOUDY    58  41  53 N15       30.16R
HAYS           CLOUDY    64  55  72 CALM      30.02R
HILL CITY      CLOUDY    56  52  86 CALM      30.04R
RUSSELL        CLOUDY    67  65  93 S6        30.00S
$$

KSZ061>065-074>080-084>089-250600-
SOUTHWEST KANSAS

CITY           SKY/WX    TMP DP  RH WIND       PRES   REMARKS
DODGE CITY     CLEAR     60  58  92 CALM      30.04R FOG
ELKHART          N/A     59  39  47 NE6         N/A
GARDEN CITY    CLEAR     62  49  62 NE8       30.05R
GREAT BEND     CLOUDY    66  59  77 S9        30.01R
LIBERAL        CLEAR     63  52  67 NE8       30.06R
$$

KSZ066>073-081>083-090>101-250600-
SOUTHEAST KANSAS

CITY           SKY/WX    TMP DP  RH WIND       PRES   REMARKS
CHANUTE        LGT RAIN  68  66  93 W7        30.07R
COFFEYVILLE    CLOUDY    70  68  93 N8        30.04F
HUTCHINSON     CLOUDY    67  66  97 S7        30.01S
MEDICINE LODGE   N/A     66  65  96 CALM        N/A
NEWTON         CLOUDY   N/A N/A N/A CALM      30.03R
PARSONS        LGT RAIN  69  67  93 NW6       30.06R
WICHITA INTL   CLOUDY    67  66  97 S3        30.00R
WICHITA JABRA  CLOUDY    67  66  97 E5        30.03R
WICHITA MCCONL CLOUDY    67  65  95 S8        30.02R
WINFIELD       CLOUDY    67  67 100 SE6       30.01F
$$

KSZ007>012-019>026-033>040-048>060-102>105-250600-
NORTHEAST KANSAS

CITY           SKY/WX    TMP DP  RH WIND       PRES   REMARKS
CONCORDIA      CLOUDY    68  68 100 SW6       30.00R
EMPORIA        CLOUDY    68  66  93 SE8       30.01R
LAWRENCE       LGT RAIN  68  68 100 CALM      30.01F FOG
MANHATTAN      MOCLDY    69  68  96 SW6       29.99R
OLATHE IND     CLOUDY    69  68  96 NW7       30.03R
OLATHE EXE     CLOUDY    69  67  93 NW8       30.03R
SALINA         CLOUDY    69  67  93 S7        30.00R
TOPEKA BILLARD LGT RAIN  68  67  96 E8        29.99S
TOPEKA FORBES    N/A    N/A N/A N/A MISG      30.01R
$$



USA.gov is the U.S. government's official web portal to all federal, state and local government web resources and services.